Year,Month,Day,Hour,Minute,Value (Times are PST for temperature in C)
2013,04,22,00,00,4.60
2013,04,22,00,01,4.60
2013,04,22,00,02,4.50
2013,04,22,00,03,4.50
2013,04,22,00,04,4.50
2013,04,22,00,05,4.50
2013,04,22,00,06,4.50
2013,04,22,00,07,4.50
2013,04,22,00,08,4.40
2013,04,22,00,09,4.40
2013,04,22,00,10,4.40
2013,04,22,00,11,4.40
2013,04,22,00,12,4.40
2013,04,22,00,13,4.40
2013,04,22,00,14,4.40
2013,04,22,00,15,4.30
2013,04,22,00,16,4.30
2013,04,22,00,17,4.30
2013,04,22,00,18,4.30
2013,04,22,00,19,4.30
2013,04,22,00,20,4.20
2013,04,22,00,21,4.20
2013,04,22,00,22,4.20
2013,04,22,00,23,4.20
2013,04,22,00,24,4.10
2013,04,22,00,25,4.10
2013,04,22,00,26,4.00
2013,04,22,00,27,4.00
2013,04,22,00,28,4.00
2013,04,22,00,29,4.00
2013,04,22,00,30,4.10
2013,04,22,00,31,4.10
2013,04,22,00,32,4.20
2013,04,22,00,33,4.30
2013,04,22,00,34,4.40
2013,04,22,00,35,4.40
2013,04,22,00,36,4.50
2013,04,22,00,37,4.60
2013,04,22,00,38,4.60
2013,04,22,00,39,4.60
2013,04,22,00,40,4.60
2013,04,22,00,41,4.50
2013,04,22,00,42,4.50
2013,04,22,00,43,4.40
2013,04,22,00,44,4.40
2013,04,22,00,45,4.30
2013,04,22,00,46,4.30
2013,04,22,00,47,4.30
2013,04,22,00,48,4.30
2013,04,22,00,49,4.30
2013,04,22,00,50,4.30
2013,04,22,00,51,4.40
2013,04,22,00,52,4.40
2013,04,22,00,53,4.40
2013,04,22,00,54,4.50
2013,04,22,00,55,4.50
2013,04,22,00,56,4.50
2013,04,22,00,57,4.60
2013,04,22,00,58,4.60
2013,04,22,00,59,4.60
2013,04,22,01,00,4.70
2013,04,22,01,01,4.70
2013,04,22,01,02,4.70
2013,04,22,01,03,4.70
2013,04,22,01,04,4.70
2013,04,22,01,05,4.60
2013,04,22,01,06,4.60
2013,04,22,01,07,4.60
2013,04,22,01,08,4.50
2013,04,22,01,09,4.50
2013,04,22,01,10,4.40
2013,04,22,01,11,4.40
2013,04,22,01,12,4.30
2013,04,22,01,13,4.30
2013,04,22,01,14,4.20
2013,04,22,01,15,4.20
2013,04,22,01,16,4.20
2013,04,22,01,17,4.10
2013,04,22,01,18,4.10
2013,04,22,01,19,4.00
2013,04,22,01,20,3.90
2013,04,22,01,21,3.80
2013,04,22,01,22,3.80
2013,04,22,01,23,3.70
2013,04,22,01,24,3.70
2013,04,22,01,25,3.60
2013,04,22,01,26,3.60
2013,04,22,01,27,3.50
2013,04,22,01,28,3.50
2013,04,22,01,29,3.50
2013,04,22,01,30,3.50
2013,04,22,01,31,3.50
2013,04,22,01,32,3.50
2013,04,22,01,33,3.40
2013,04,22,01,34,3.40
2013,04,22,01,35,3.40
2013,04,22,01,36,3.40
2013,04,22,01,37,3.40
2013,04,22,01,38,3.40
2013,04,22,01,39,3.40
2013,04,22,01,40,3.30
2013,04,22,01,41,3.30
2013,04,22,01,42,3.30
2013,04,22,01,43,3.30
2013,04,22,01,44,3.30
2013,04,22,01,45,3.30
2013,04,22,01,46,3.30
2013,04,22,01,47,3.20
2013,04,22,01,48,3.20
2013,04,22,01,49,3.20
2013,04,22,01,50,3.20
2013,04,22,01,51,3.20
2013,04,22,01,52,3.20
2013,04,22,01,53,3.20
2013,04,22,01,54,3.10
2013,04,22,01,55,3.10
2013,04,22,01,56,3.10
2013,04,22,01,57,3.10
2013,04,22,01,58,3.10
2013,04,22,01,59,3.10
2013,04,22,02,00,3.10
2013,04,22,02,01,3.10
2013,04,22,02,02,3.10
2013,04,22,02,03,3.10
2013,04,22,02,04,3.10
2013,04,22,02,05,3.10
2013,04,22,02,06,3.10
2013,04,22,02,07,3.10
2013,04,22,02,08,3.10
2013,04,22,02,09,3.10
2013,04,22,02,10,3.10
2013,04,22,02,11,3.20
2013,04,22,02,12,3.20
2013,04,22,02,13,3.20
2013,04,22,02,14,3.20
2013,04,22,02,15,3.20
2013,04,22,02,16,3.20
2013,04,22,02,17,3.20
2013,04,22,02,18,3.20
2013,04,22,02,19,3.20
2013,04,22,02,20,3.10
2013,04,22,02,21,3.10
2013,04,22,02,22,3.10
2013,04,22,02,23,3.10
2013,04,22,02,24,3.10
2013,04,22,02,25,3.10
2013,04,22,02,26,3.10
2013,04,22,02,27,3.10
2013,04,22,02,28,3.20
2013,04,22,02,29,3.20
2013,04,22,02,30,3.20
2013,04,22,02,31,3.20
2013,04,22,02,32,3.20
2013,04,22,02,33,3.20
2013,04,22,02,34,3.20
2013,04,22,02,35,3.10
2013,04,22,02,36,3.10
2013,04,22,02,37,3.00
2013,04,22,02,38,2.90
2013,04,22,02,39,2.90
2013,04,22,02,40,2.90
2013,04,22,02,41,2.90
2013,04,22,02,42,2.90
2013,04,22,02,43,2.80
2013,04,22,02,44,2.80
2013,04,22,02,45,2.80
2013,04,22,02,46,2.80
2013,04,22,02,47,2.80
2013,04,22,02,48,2.90
2013,04,22,02,49,2.90
2013,04,22,02,50,2.90
2013,04,22,02,51,3.00
2013,04,22,02,52,3.00
2013,04,22,02,53,2.90
2013,04,22,02,54,2.90
2013,04,22,02,55,3.00
2013,04,22,02,56,3.10
2013,04,22,02,57,3.10
2013,04,22,02,58,3.10
2013,04,22,02,59,3.00
2013,04,22,03,00,2.90
2013,04,22,03,01,2.80
2013,04,22,03,02,2.70
2013,04,22,03,03,2.60
2013,04,22,03,04,2.60
2013,04,22,03,05,2.50
2013,04,22,03,06,2.50
2013,04,22,03,07,2.40
2013,04,22,03,08,2.40
2013,04,22,03,09,2.50
2013,04,22,03,10,2.50
2013,04,22,03,11,2.60
2013,04,22,03,12,2.70
2013,04,22,03,13,2.70
2013,04,22,03,14,2.80
2013,04,22,03,15,2.80
2013,04,22,03,16,2.90
2013,04,22,03,17,2.90
2013,04,22,03,18,3.00
2013,04,22,03,19,3.10
2013,04,22,03,20,3.10
2013,04,22,03,21,3.20
2013,04,22,03,22,3.20
2013,04,22,03,23,3.20
2013,04,22,03,24,3.20
2013,04,22,03,25,3.20
2013,04,22,03,26,3.20
2013,04,22,03,27,3.20
2013,04,22,03,28,3.10
2013,04,22,03,29,3.10
2013,04,22,03,30,3.10
2013,04,22,03,31,3.10
2013,04,22,03,32,3.10
2013,04,22,03,33,3.10
2013,04,22,03,34,3.10
2013,04,22,03,35,3.10
2013,04,22,03,36,3.10
2013,04,22,03,37,3.00
2013,04,22,03,38,3.00
2013,04,22,03,39,2.90
2013,04,22,03,40,2.90
2013,04,22,03,41,3.00
2013,04,22,03,42,3.00
2013,04,22,03,43,3.10
2013,04,22,03,44,3.20
2013,04,22,03,45,3.30
2013,04,22,03,46,3.40
2013,04,22,03,47,3.40
2013,04,22,03,48,3.40
2013,04,22,03,49,3.40
2013,04,22,03,50,3.50
2013,04,22,03,51,3.50
2013,04,22,03,52,3.60
2013,04,22,03,53,3.50
2013,04,22,03,54,3.50
2013,04,22,03,55,3.50
2013,04,22,03,56,3.50
2013,04,22,03,57,3.50
2013,04,22,03,58,3.60
2013,04,22,03,59,3.60
2013,04,22,04,00,3.70
2013,04,22,04,01,3.80
2013,04,22,04,02,3.90
2013,04,22,04,03,3.90
2013,04,22,04,04,4.00
2013,04,22,04,05,4.00
2013,04,22,04,06,4.10
2013,04,22,04,07,4.10
2013,04,22,04,08,4.10
2013,04,22,04,09,4.10
2013,04,22,04,10,4.10
2013,04,22,04,11,4.10
2013,04,22,04,12,4.10
2013,04,22,04,13,4.10
2013,04,22,04,14,4.10
2013,04,22,04,15,4.20
2013,04,22,04,16,4.20
2013,04,22,04,17,4.30
2013,04,22,04,18,4.30
2013,04,22,04,19,4.30
2013,04,22,04,20,4.40
2013,04,22,04,21,4.40
2013,04,22,04,22,4.40
2013,04,22,04,23,4.40
2013,04,22,04,24,4.50
2013,04,22,04,25,4.50
2013,04,22,04,26,4.60
2013,04,22,04,27,4.60
2013,04,22,04,28,4.50
2013,04,22,04,29,4.40
2013,04,22,04,30,4.40
2013,04,22,04,31,4.40
2013,04,22,04,32,4.30
2013,04,22,04,33,4.20
2013,04,22,04,34,4.20
2013,04,22,04,35,4.10
2013,04,22,04,36,4.00
2013,04,22,04,37,4.00
2013,04,22,04,38,3.90
2013,04,22,04,39,3.90
2013,04,22,04,40,3.90
2013,04,22,04,41,4.00
2013,04,22,04,42,4.00
2013,04,22,04,43,4.00
2013,04,22,04,44,4.00
2013,04,22,04,45,4.00
2013,04,22,04,46,4.00
2013,04,22,04,47,4.10
2013,04,22,04,48,4.10
2013,04,22,04,49,4.10
2013,04,22,04,50,4.20
2013,04,22,04,51,4.20
2013,04,22,04,52,4.20
2013,04,22,04,53,4.10
2013,04,22,04,54,4.10
2013,04,22,04,55,4.20
2013,04,22,04,56,4.20
2013,04,22,04,57,4.20
2013,04,22,04,58,4.20
2013,04,22,04,59,4.10
2013,04,22,05,00,4.10
2013,04,22,05,01,4.10
2013,04,22,05,02,4.00
2013,04,22,05,03,4.00
2013,04,22,05,04,4.00
2013,04,22,05,05,3.90
2013,04,22,05,06,4.00
2013,04,22,05,07,4.10
2013,04,22,05,08,4.10
2013,04,22,05,09,4.20
2013,04,22,05,10,4.20
2013,04,22,05,11,4.30
2013,04,22,05,12,4.30
2013,04,22,05,13,4.40
2013,04,22,05,14,4.40
2013,04,22,05,15,4.40
2013,04,22,05,16,4.40
2013,04,22,05,17,4.40
2013,04,22,05,18,4.40
2013,04,22,05,19,4.40
2013,04,22,05,20,4.50
2013,04,22,05,21,4.50
2013,04,22,05,22,4.50
2013,04,22,05,23,4.40
2013,04,22,05,24,4.40
2013,04,22,05,25,4.40
2013,04,22,05,26,4.50
2013,04,22,05,27,4.50
2013,04,22,05,28,4.50
2013,04,22,05,29,4.50
2013,04,22,05,30,4.60
2013,04,22,05,31,4.60
2013,04,22,05,32,4.50
2013,04,22,05,33,4.50
2013,04,22,05,34,4.50
2013,04,22,05,35,4.50
2013,04,22,05,36,4.40
2013,04,22,05,37,4.40
2013,04,22,05,38,4.40
2013,04,22,05,39,4.40
2013,04,22,05,40,4.40
2013,04,22,05,41,4.40
2013,04,22,05,42,4.40
2013,04,22,05,43,4.40
2013,04,22,05,44,4.40
2013,04,22,05,45,4.40
2013,04,22,05,46,4.30
2013,04,22,05,47,4.30
2013,04,22,05,48,4.20
2013,04,22,05,49,4.20
2013,04,22,05,50,4.20
2013,04,22,05,51,4.20
2013,04,22,05,52,4.10
2013,04,22,05,53,4.10
2013,04,22,05,54,4.00
2013,04,22,05,55,4.00
2013,04,22,05,56,4.00
2013,04,22,05,57,4.00
2013,04,22,05,58,4.10
2013,04,22,05,59,4.10
2013,04,22,06,00,4.00
2013,04,22,06,01,3.90
2013,04,22,06,02,3.80
2013,04,22,06,03,3.60
2013,04,22,06,04,3.60
2013,04,22,06,05,3.50
2013,04,22,06,06,3.40
2013,04,22,06,07,3.40
2013,04,22,06,08,3.30
2013,04,22,06,09,3.30
2013,04,22,06,10,3.30
2013,04,22,06,11,3.30
2013,04,22,06,12,3.20
2013,04,22,06,13,3.20
2013,04,22,06,14,3.30
2013,04,22,06,15,3.30
2013,04,22,06,16,3.30
2013,04,22,06,17,3.30
2013,04,22,06,18,3.30
2013,04,22,06,19,3.30
2013,04,22,06,20,3.30
2013,04,22,06,21,3.30
2013,04,22,06,22,3.30
2013,04,22,06,23,3.20
2013,04,22,06,24,3.20
2013,04,22,06,25,3.20
2013,04,22,06,26,3.20
2013,04,22,06,27,3.20
2013,04,22,06,28,3.20
2013,04,22,06,29,3.20
2013,04,22,06,30,3.10
2013,04,22,06,31,3.10
2013,04,22,06,32,3.10
2013,04,22,06,33,3.10
2013,04,22,06,34,3.10
2013,04,22,06,35,3.10
2013,04,22,06,36,3.10
2013,04,22,06,37,3.10
2013,04,22,06,38,3.20
2013,04,22,06,39,3.20
2013,04,22,06,40,3.30
2013,04,22,06,41,3.40
2013,04,22,06,42,3.50
2013,04,22,06,43,3.60
2013,04,22,06,44,3.60
2013,04,22,06,45,3.70
2013,04,22,06,46,3.80
2013,04,22,06,47,3.90
2013,04,22,06,48,4.00
2013,04,22,06,49,4.10
2013,04,22,06,50,4.20
2013,04,22,06,51,4.30
2013,04,22,06,52,4.30
2013,04,22,06,53,4.40
2013,04,22,06,54,4.40
2013,04,22,06,55,4.40
2013,04,22,06,56,4.50
2013,04,22,06,57,4.50
2013,04,22,06,58,4.50
2013,04,22,06,59,4.60
2013,04,22,07,00,4.60
2013,04,22,07,01,4.60
2013,04,22,07,02,4.70
2013,04,22,07,03,4.70
2013,04,22,07,04,4.70
2013,04,22,07,05,4.80
2013,04,22,07,06,4.90
2013,04,22,07,07,4.90
2013,04,22,07,08,5.00
2013,04,22,07,09,5.10
2013,04,22,07,10,5.10
2013,04,22,07,11,5.10
2013,04,22,07,12,5.20
2013,04,22,07,13,5.20
2013,04,22,07,14,5.20
2013,04,22,07,15,5.30
2013,04,22,07,16,5.30
2013,04,22,07,17,5.30
2013,04,22,07,18,5.40
2013,04,22,07,19,5.40
2013,04,22,07,20,5.50
2013,04,22,07,21,5.50
2013,04,22,07,22,5.60
2013,04,22,07,23,5.60
2013,04,22,07,24,5.70
2013,04,22,07,25,5.80
2013,04,22,07,26,5.80
2013,04,22,07,27,5.80
2013,04,22,07,28,5.80
2013,04,22,07,29,5.90
2013,04,22,07,30,5.90
2013,04,22,07,31,6.00
2013,04,22,07,32,6.00
2013,04,22,07,33,6.10
2013,04,22,07,34,6.10
2013,04,22,07,35,6.20
2013,04,22,07,36,6.20
2013,04,22,07,37,6.30
2013,04,22,07,38,6.30
2013,04,22,07,39,6.40
2013,04,22,07,40,6.40
2013,04,22,07,41,6.40
2013,04,22,07,42,6.50
2013,04,22,07,43,6.50
2013,04,22,07,44,6.60
2013,04,22,07,45,6.70
2013,04,22,07,46,6.70
2013,04,22,07,47,6.80
2013,04,22,07,48,6.80
2013,04,22,07,49,6.90
2013,04,22,07,50,6.90
2013,04,22,07,51,7.00
2013,04,22,07,52,7.00
2013,04,22,07,53,7.10
2013,04,22,07,54,7.20
2013,04,22,07,55,7.20
2013,04,22,07,56,7.30
2013,04,22,07,57,7.40
2013,04,22,07,58,7.40
2013,04,22,07,59,7.50
2013,04,22,08,00,7.50
2013,04,22,08,01,7.60
2013,04,22,08,02,7.60
2013,04,22,08,03,7.70
2013,04,22,08,04,7.70
2013,04,22,08,05,7.70
2013,04,22,08,06,7.80
2013,04,22,08,07,7.80
2013,04,22,08,08,7.90
2013,04,22,08,09,7.90
2013,04,22,08,10,7.90
2013,04,22,08,11,8.00
2013,04,22,08,12,8.00
2013,04,22,08,13,8.00
2013,04,22,08,14,8.10
2013,04,22,08,15,8.10
2013,04,22,08,16,8.10
2013,04,22,08,17,8.10
2013,04,22,08,18,8.10
2013,04,22,08,19,8.10
2013,04,22,08,20,8.10
2013,04,22,08,21,8.10
2013,04,22,08,22,8.10
2013,04,22,08,23,8.20
2013,04,22,08,24,8.20
2013,04,22,08,25,8.20
2013,04,22,08,26,8.30
2013,04,22,08,27,8.30
2013,04,22,08,28,8.30
2013,04,22,08,29,8.30
2013,04,22,08,30,8.40
2013,04,22,08,31,8.40
2013,04,22,08,32,8.40
2013,04,22,08,33,8.40
2013,04,22,08,34,8.50
2013,04,22,08,35,8.50
2013,04,22,08,36,8.60
2013,04,22,08,37,8.60
2013,04,22,08,38,8.60
2013,04,22,08,39,8.60
2013,04,22,08,40,8.60
2013,04,22,08,41,8.60
2013,04,22,08,42,8.60
2013,04,22,08,43,8.60
2013,04,22,08,44,8.60
2013,04,22,08,45,8.60
2013,04,22,08,46,8.60
2013,04,22,08,47,8.60
2013,04,22,08,48,8.60
2013,04,22,08,49,8.60
2013,04,22,08,50,8.60
2013,04,22,08,51,8.60
2013,04,22,08,52,8.70
2013,04,22,08,53,8.70
2013,04,22,08,54,8.70
2013,04,22,08,55,8.80
2013,04,22,08,56,8.80
2013,04,22,08,57,8.80
2013,04,22,08,58,8.80
2013,04,22,08,59,8.80
2013,04,22,09,00,8.80
2013,04,22,09,01,8.90
2013,04,22,09,02,9.00
2013,04,22,09,03,9.10
2013,04,22,09,04,9.10
2013,04,22,09,05,9.20
2013,04,22,09,06,9.20
2013,04,22,09,07,9.20
2013,04,22,09,08,9.20
2013,04,22,09,09,9.30
2013,04,22,09,10,9.30
2013,04,22,09,11,9.30
2013,04,22,09,12,9.30
2013,04,22,09,13,9.30
2013,04,22,09,14,9.30
2013,04,22,09,15,9.30
2013,04,22,09,16,9.30
2013,04,22,09,17,9.30
2013,04,22,09,18,9.30
2013,04,22,09,19,9.30
2013,04,22,09,20,9.30
2013,04,22,09,21,9.20
2013,04,22,09,22,9.20
2013,04,22,09,23,9.30
2013,04,22,09,24,9.40
2013,04,22,09,25,9.40
2013,04,22,09,26,9.50
2013,04,22,09,27,9.60
2013,04,22,09,28,9.60
2013,04,22,09,29,9.70
2013,04,22,09,30,9.70
2013,04,22,09,31,9.80
2013,04,22,09,32,9.80
2013,04,22,09,33,9.90
2013,04,22,09,34,9.90
2013,04,22,09,35,10.00
2013,04,22,09,36,10.10
2013,04,22,09,37,10.10
2013,04,22,09,38,10.20
2013,04,22,09,39,10.20
2013,04,22,09,40,10.10
2013,04,22,09,41,10.10
2013,04,22,09,42,10.10
2013,04,22,09,43,10.10
2013,04,22,09,44,10.10
2013,04,22,09,45,10.10
2013,04,22,09,46,10.20
2013,04,22,09,47,10.20
2013,04,22,09,48,10.10
2013,04,22,09,49,10.10
2013,04,22,09,50,10.10
2013,04,22,09,51,10.10
2013,04,22,09,52,10.10
2013,04,22,09,53,10.10
2013,04,22,09,54,10.20
2013,04,22,09,55,10.20
2013,04,22,09,56,10.30
2013,04,22,09,57,10.30
2013,04,22,09,58,10.40
2013,04,22,09,59,10.40
2013,04,22,10,00,10.50
2013,04,22,10,01,10.50
2013,04,22,10,02,10.50
2013,04,22,10,03,10.50
2013,04,22,10,04,10.50
2013,04,22,10,05,10.40
2013,04,22,10,06,10.40
2013,04,22,10,07,10.30
2013,04,22,10,08,10.30
2013,04,22,10,09,10.20
2013,04,22,10,10,10.20
2013,04,22,10,11,10.20
2013,04,22,10,12,10.20
2013,04,22,10,13,10.20
2013,04,22,10,14,10.20
2013,04,22,10,15,10.30
2013,04,22,10,16,10.40
2013,04,22,10,17,10.40
2013,04,22,10,18,10.30
2013,04,22,10,19,10.20
2013,04,22,10,20,10.10
2013,04,22,10,21,10.00
2013,04,22,10,22,9.90
2013,04,22,10,23,9.90
2013,04,22,10,24,9.90
2013,04,22,10,25,9.90
2013,04,22,10,26,10.00
2013,04,22,10,27,10.00
2013,04,22,10,28,10.10
2013,04,22,10,29,10.20
2013,04,22,10,30,10.30
2013,04,22,10,31,10.30
2013,04,22,10,32,10.30
2013,04,22,10,33,10.30
2013,04,22,10,34,10.30
2013,04,22,10,35,10.40
2013,04,22,10,36,10.40
2013,04,22,10,37,10.40
2013,04,22,10,38,10.30
2013,04,22,10,39,10.30
2013,04,22,10,40,10.30
2013,04,22,10,41,10.40
2013,04,22,10,42,10.40
2013,04,22,10,43,10.40
2013,04,22,10,44,10.50
2013,04,22,10,45,10.50
2013,04,22,10,46,10.50
2013,04,22,10,47,10.60
2013,04,22,10,48,10.70
2013,04,22,10,49,10.80
2013,04,22,10,50,10.80
2013,04,22,10,51,10.80
2013,04,22,10,52,10.70
2013,04,22,10,53,10.80
2013,04,22,10,54,10.80
2013,04,22,10,55,10.80
2013,04,22,10,56,10.70
2013,04,22,10,57,10.60
2013,04,22,10,58,10.60
2013,04,22,10,59,10.60
2013,04,22,11,00,10.60
2013,04,22,11,01,10.60
2013,04,22,11,02,10.60
2013,04,22,11,03,10.60
2013,04,22,11,04,10.70
2013,04,22,11,05,10.90
2013,04,22,11,06,11.00
2013,04,22,11,07,11.10
2013,04,22,11,08,11.20
2013,04,22,11,09,11.20
2013,04,22,11,10,11.20
2013,04,22,11,11,11.30
2013,04,22,11,12,11.30
2013,04,22,11,13,11.30
2013,04,22,11,14,11.30
2013,04,22,11,15,11.30
2013,04,22,11,16,11.30
2013,04,22,11,17,11.40
2013,04,22,11,18,11.40
2013,04,22,11,19,11.40
2013,04,22,11,20,11.40
2013,04,22,11,21,11.40
2013,04,22,11,22,11.50
2013,04,22,11,23,11.50
2013,04,22,11,24,11.50
2013,04,22,11,25,11.50
2013,04,22,11,26,11.40
2013,04,22,11,27,11.30
2013,04,22,11,28,11.20
2013,04,22,11,29,11.20
2013,04,22,11,30,11.20
2013,04,22,11,31,11.30
2013,04,22,11,32,11.40
2013,04,22,11,33,11.50
2013,04,22,11,34,11.50
2013,04,22,11,35,11.50
2013,04,22,11,36,11.40
2013,04,22,11,37,11.30
2013,04,22,11,38,11.30
2013,04,22,11,39,11.30
2013,04,22,11,40,11.40
2013,04,22,11,41,11.50
2013,04,22,11,42,11.50
2013,04,22,11,43,11.60
2013,04,22,11,44,11.70
2013,04,22,11,45,11.80
2013,04,22,11,46,11.80
2013,04,22,11,47,11.80
2013,04,22,11,48,11.80
2013,04,22,11,49,11.90
2013,04,22,11,50,12.00
2013,04,22,11,51,12.00
2013,04,22,11,52,12.10
2013,04,22,11,53,12.10
2013,04,22,11,54,12.10
2013,04,22,11,55,12.00
2013,04,22,11,56,12.00
2013,04,22,11,57,12.10
2013,04,22,11,58,12.10
2013,04,22,11,59,12.00
2013,04,22,12,00,11.80
2013,04,22,12,01,11.80
2013,04,22,12,02,11.80
2013,04,22,12,03,11.80
2013,04,22,12,04,11.80
2013,04,22,12,05,11.80
2013,04,22,12,06,11.80
2013,04,22,12,07,11.80
2013,04,22,12,08,11.90
2013,04,22,12,09,11.90
2013,04,22,12,10,12.10
2013,04,22,12,11,12.20
2013,04,22,12,12,12.30
2013,04,22,12,13,12.40
2013,04,22,12,14,12.60
2013,04,22,12,15,12.70
2013,04,22,12,16,12.80
2013,04,22,12,17,13.00
2013,04,22,12,18,13.00
2013,04,22,12,19,13.00
2013,04,22,12,20,13.10
2013,04,22,12,21,13.00
2013,04,22,12,22,13.00
2013,04,22,12,23,12.90
2013,04,22,12,24,12.90
2013,04,22,12,25,12.90
2013,04,22,12,26,12.90
2013,04,22,12,27,12.90
2013,04,22,12,28,12.80
2013,04,22,12,29,12.90
2013,04,22,12,30,12.90
2013,04,22,12,31,13.00
2013,04,22,12,32,13.10
2013,04,22,12,33,13.10
2013,04,22,12,34,13.10
2013,04,22,12,35,13.00
2013,04,22,12,36,12.90
2013,04,22,12,37,12.90
2013,04,22,12,38,12.90
2013,04,22,12,39,12.90
2013,04,22,12,40,12.80
2013,04,22,12,41,12.70
2013,04,22,12,42,12.70
2013,04,22,12,43,12.70
2013,04,22,12,44,12.80
2013,04,22,12,45,12.90
2013,04,22,12,46,13.10
2013,04,22,12,47,13.20
2013,04,22,12,48,13.20
2013,04,22,12,49,13.20
2013,04,22,12,50,13.30
2013,04,22,12,51,13.30
2013,04,22,12,52,13.30
2013,04,22,12,53,13.40
2013,04,22,12,54,13.40
2013,04,22,12,55,13.40
2013,04,22,12,56,13.50
2013,04,22,12,57,13.60
2013,04,22,12,58,13.70
2013,04,22,12,59,13.70
2013,04,22,13,00,13.60
2013,04,22,13,01,13.60
2013,04,22,13,02,13.60
2013,04,22,13,03,13.50
2013,04,22,13,04,13.50
2013,04,22,13,05,13.50
2013,04,22,13,06,13.50
2013,04,22,13,07,13.60
2013,04,22,13,08,13.60
2013,04,22,13,09,13.70
2013,04,22,13,10,13.60
2013,04,22,13,11,13.60
2013,04,22,13,12,13.50
2013,04,22,13,13,13.30
2013,04,22,13,14,13.20
2013,04,22,13,15,13.20
2013,04,22,13,16,13.20
2013,04,22,13,17,13.10
2013,04,22,13,18,13.10
2013,04,22,13,19,13.10
2013,04,22,13,20,13.10
2013,04,22,13,21,13.10
2013,04,22,13,22,13.10
2013,04,22,13,23,13.20
2013,04,22,13,24,13.30
2013,04,22,13,25,13.50
2013,04,22,13,26,13.60
2013,04,22,13,27,13.60
2013,04,22,13,28,13.60
2013,04,22,13,29,13.50
2013,04,22,13,30,13.50
2013,04,22,13,31,13.50
2013,04,22,13,32,13.50
2013,04,22,13,33,13.50
2013,04,22,13,34,13.50
2013,04,22,13,35,13.50
2013,04,22,13,36,13.60
2013,04,22,13,37,13.60
2013,04,22,13,38,13.70
2013,04,22,13,39,13.70
2013,04,22,13,40,13.80
2013,04,22,13,41,13.80
2013,04,22,13,42,13.90
2013,04,22,13,43,14.00
2013,04,22,13,44,14.10
2013,04,22,13,45,14.20
2013,04,22,13,46,14.20
2013,04,22,13,47,14.20
2013,04,22,13,48,14.20
2013,04,22,13,49,14.10
2013,04,22,13,50,14.10
2013,04,22,13,51,14.10
2013,04,22,13,52,14.10
2013,04,22,13,53,14.10
2013,04,22,13,54,14.10
2013,04,22,13,55,14.00
2013,04,22,13,56,14.10
2013,04,22,13,57,14.10
2013,04,22,13,58,14.10
2013,04,22,13,59,14.10
2013,04,22,14,00,14.10
2013,04,22,14,01,14.20
2013,04,22,14,02,14.20
2013,04,22,14,03,14.10
2013,04,22,14,04,14.10
2013,04,22,14,05,14.20
2013,04,22,14,06,14.20
2013,04,22,14,07,14.10
2013,04,22,14,08,14.10
2013,04,22,14,09,14.10
2013,04,22,14,10,14.10
2013,04,22,14,11,14.20
2013,04,22,14,12,14.30
2013,04,22,14,13,14.40
2013,04,22,14,14,14.40
2013,04,22,14,15,14.40
2013,04,22,14,16,14.30
2013,04,22,14,17,14.40
2013,04,22,14,18,14.40
2013,04,22,14,19,14.40
2013,04,22,14,20,14.50
2013,04,22,14,21,14.50
2013,04,22,14,22,14.50
2013,04,22,14,23,14.50
2013,04,22,14,24,14.40
2013,04,22,14,25,14.50
2013,04,22,14,26,14.50
2013,04,22,14,27,14.40
2013,04,22,14,28,14.40
2013,04,22,14,29,14.40
2013,04,22,14,30,14.40
2013,04,22,14,31,14.50
2013,04,22,14,32,14.50
2013,04,22,14,33,14.50
2013,04,22,14,34,14.60
2013,04,22,14,35,14.70
2013,04,22,14,36,14.70
2013,04,22,14,37,14.70
2013,04,22,14,38,14.70
2013,04,22,14,39,14.70
2013,04,22,14,40,14.70
2013,04,22,14,41,14.70
2013,04,22,14,42,14.70
2013,04,22,14,43,14.80
2013,04,22,14,44,14.80
2013,04,22,14,45,14.70
2013,04,22,14,46,14.60
2013,04,22,14,47,14.60
2013,04,22,14,48,14.60
2013,04,22,14,49,14.60
2013,04,22,14,50,14.70
2013,04,22,14,51,14.80
2013,04,22,14,52,14.90
2013,04,22,14,53,14.90
2013,04,22,14,54,15.00
2013,04,22,14,55,15.00
2013,04,22,14,56,14.90
2013,04,22,14,57,14.90
2013,04,22,14,58,14.90
2013,04,22,14,59,14.90
2013,04,22,15,00,15.00
2013,04,22,15,01,15.00
2013,04,22,15,02,14.90
2013,04,22,15,03,14.90
2013,04,22,15,04,14.90
2013,04,22,15,05,14.90
2013,04,22,15,06,14.80
2013,04,22,15,07,14.90
2013,04,22,15,08,15.00
2013,04,22,15,09,15.20
2013,04,22,15,10,15.20
2013,04,22,15,11,15.20
2013,04,22,15,12,15.20
2013,04,22,15,13,15.10
2013,04,22,15,14,15.10
2013,04,22,15,15,15.10
2013,04,22,15,16,15.10
2013,04,22,15,17,15.10
2013,04,22,15,18,15.10
2013,04,22,15,19,15.10
2013,04,22,15,20,15.00
2013,04,22,15,21,15.00
2013,04,22,15,22,15.10
2013,04,22,15,23,15.20
2013,04,22,15,24,15.30
2013,04,22,15,25,15.30
2013,04,22,15,26,15.30
2013,04,22,15,27,15.30
2013,04,22,15,28,15.30
2013,04,22,15,29,15.30
2013,04,22,15,30,15.40
2013,04,22,15,31,15.30
2013,04,22,15,32,15.30
2013,04,22,15,33,15.30
2013,04,22,15,34,15.30
2013,04,22,15,35,15.30
2013,04,22,15,36,15.30
2013,04,22,15,37,15.30
2013,04,22,15,38,15.30
2013,04,22,15,39,15.30
2013,04,22,15,40,15.30
2013,04,22,15,41,15.40
2013,04,22,15,42,15.40
2013,04,22,15,43,15.40
2013,04,22,15,44,15.30
2013,04,22,15,45,15.30
2013,04,22,15,46,15.40
2013,04,22,15,47,15.40
2013,04,22,15,48,15.50
2013,04,22,15,49,15.60
2013,04,22,15,50,15.70
2013,04,22,15,51,15.70
2013,04,22,15,52,15.70
2013,04,22,15,53,15.70
2013,04,22,15,54,15.80
2013,04,22,15,55,15.80
2013,04,22,15,56,15.80
2013,04,22,15,57,15.70
2013,04,22,15,58,15.70
2013,04,22,15,59,15.70
2013,04,22,16,00,15.60
2013,04,22,16,01,15.60
2013,04,22,16,02,15.60
2013,04,22,16,03,15.60
2013,04,22,16,04,15.60
2013,04,22,16,05,15.50
2013,04,22,16,06,15.50
2013,04,22,16,07,15.40
2013,04,22,16,08,15.40
2013,04,22,16,09,15.50
2013,04,22,16,10,15.50
2013,04,22,16,11,15.60
2013,04,22,16,12,15.60
2013,04,22,16,13,15.60
2013,04,22,16,14,15.50
2013,04,22,16,15,15.40
2013,04,22,16,16,15.30
2013,04,22,16,17,15.20
2013,04,22,16,18,15.20
2013,04,22,16,19,15.20
2013,04,22,16,20,15.30
2013,04,22,16,21,15.40
2013,04,22,16,22,15.50
2013,04,22,16,23,15.60
2013,04,22,16,24,15.70
2013,04,22,16,25,15.70
2013,04,22,16,26,15.80
2013,04,22,16,27,15.80
2013,04,22,16,28,15.80
2013,04,22,16,29,15.90
2013,04,22,16,30,15.90
2013,04,22,16,31,15.90
2013,04,22,16,32,15.90
2013,04,22,16,33,15.90
2013,04,22,16,34,15.90
2013,04,22,16,35,15.80
2013,04,22,16,36,15.80
2013,04,22,16,37,15.80
2013,04,22,16,38,15.80
2013,04,22,16,39,15.70
2013,04,22,16,40,15.60
2013,04,22,16,41,15.50
2013,04,22,16,42,15.50
2013,04,22,16,43,15.40
2013,04,22,16,44,15.40
2013,04,22,16,45,15.40
2013,04,22,16,46,15.40
2013,04,22,16,47,15.40
2013,04,22,16,48,15.40
2013,04,22,16,49,15.50
2013,04,22,16,50,15.60
2013,04,22,16,51,15.70
2013,04,22,16,52,15.80
2013,04,22,16,53,15.90
2013,04,22,16,54,15.90
2013,04,22,16,55,15.90
2013,04,22,16,56,16.00
2013,04,22,16,57,16.10
2013,04,22,16,58,16.10
2013,04,22,16,59,16.10
2013,04,22,17,00,16.00
2013,04,22,17,01,15.90
2013,04,22,17,02,15.80
2013,04,22,17,03,15.80
2013,04,22,17,04,15.70
2013,04,22,17,05,15.60
2013,04,22,17,06,15.60
2013,04,22,17,07,15.70
2013,04,22,17,08,15.80
2013,04,22,17,09,15.90
2013,04,22,17,10,16.00
2013,04,22,17,11,16.00
2013,04,22,17,12,16.00
2013,04,22,17,13,15.90
2013,04,22,17,14,15.90
2013,04,22,17,15,16.00
2013,04,22,17,16,16.10
2013,04,22,17,17,16.20
2013,04,22,17,18,16.20
2013,04,22,17,19,16.30
2013,04,22,17,20,16.40
2013,04,22,17,21,16.40
2013,04,22,17,22,16.40
2013,04,22,17,23,16.40
2013,04,22,17,24,16.40
2013,04,22,17,25,16.30
2013,04,22,17,26,16.30
2013,04,22,17,27,16.20
2013,04,22,17,28,16.20
2013,04,22,17,29,16.10
2013,04,22,17,30,16.00
2013,04,22,17,31,15.90
2013,04,22,17,32,15.90
2013,04,22,17,33,15.90
2013,04,22,17,34,15.90
2013,04,22,17,35,16.00
2013,04,22,17,36,16.00
2013,04,22,17,37,16.10
2013,04,22,17,38,16.10
2013,04,22,17,39,16.10
2013,04,22,17,40,16.20
2013,04,22,17,41,16.20
2013,04,22,17,42,16.30
2013,04,22,17,43,16.30
2013,04,22,17,44,16.30